Year,Month,Day,Hour,Minute,Value (Times are PST for temperature in C)
2015,05,22,00,00,15.40
2015,05,22,00,01,15.40
2015,05,22,00,02,15.40
2015,05,22,00,03,15.40
2015,05,22,00,04,15.30
2015,05,22,00,05,15.30
2015,05,22,00,06,15.30
2015,05,22,00,07,15.30
2015,05,22,00,08,15.30
2015,05,22,00,09,15.30
2015,05,22,00,10,15.30
2015,05,22,00,11,15.30
2015,05,22,00,12,15.30
2015,05,22,00,13,15.20
2015,05,22,00,14,15.20
2015,05,22,00,15,15.20
2015,05,22,00,16,15.20
2015,05,22,00,17,15.20
2015,05,22,00,18,15.10
2015,05,22,00,19,15.10
2015,05,22,00,20,15.10
2015,05,22,00,21,15.10
2015,05,22,00,22,15.10
2015,05,22,00,23,15.00
2015,05,22,00,24,15.00
2015,05,22,00,25,15.00
2015,05,22,00,26,15.00
2015,05,22,00,27,14.90
2015,05,22,00,28,14.90
2015,05,22,00,29,14.90
2015,05,22,00,30,14.90
2015,05,22,00,31,14.90
2015,05,22,00,32,14.80
2015,05,22,00,33,14.80
2015,05,22,00,34,14.80
2015,05,22,00,35,14.80
2015,05,22,00,36,14.80
2015,05,22,00,37,14.70
2015,05,22,00,38,14.70
2015,05,22,00,39,14.70
2015,05,22,00,40,14.70
2015,05,22,00,41,14.60
2015,05,22,00,42,14.60
2015,05,22,00,43,14.60
2015,05,22,00,44,14.50
2015,05,22,00,45,14.50
2015,05,22,00,46,14.50
2015,05,22,00,47,14.40
2015,05,22,00,48,14.40
2015,05,22,00,49,14.40
2015,05,22,00,50,14.40
2015,05,22,00,51,14.30
2015,05,22,00,52,14.30
2015,05,22,00,53,14.30
2015,05,22,00,54,14.30
2015,05,22,00,55,14.20
2015,05,22,00,56,14.20
2015,05,22,00,57,14.20
2015,05,22,00,58,14.20
2015,05,22,00,59,14.20
2015,05,22,01,00,14.10
2015,05,22,01,01,14.10
2015,05,22,01,02,14.10
2015,05,22,01,03,14.10
2015,05,22,01,04,14.10
2015,05,22,01,05,14.00
2015,05,22,01,06,14.00
2015,05,22,01,07,14.00
2015,05,22,01,08,13.90
2015,05,22,01,09,13.90
2015,05,22,01,10,13.90
2015,05,22,01,11,13.90
2015,05,22,01,12,13.80
2015,05,22,01,13,13.80
2015,05,22,01,14,13.80
2015,05,22,01,15,13.80
2015,05,22,01,16,13.80
2015,05,22,01,17,13.80
2015,05,22,01,18,13.80
2015,05,22,01,19,13.70
2015,05,22,01,20,13.70
2015,05,22,01,21,13.70
2015,05,22,01,22,13.70
2015,05,22,01,23,13.60
2015,05,22,01,24,13.60
2015,05,22,01,25,13.60
2015,05,22,01,26,13.60
2015,05,22,01,27,13.50
2015,05,22,01,28,13.50
2015,05,22,01,29,13.50
2015,05,22,01,30,13.40
2015,05,22,01,31,13.40
2015,05,22,01,32,13.40
2015,05,22,01,33,13.40
2015,05,22,01,34,13.30
2015,05,22,01,35,13.30
2015,05,22,01,36,13.30
2015,05,22,01,37,13.30
2015,05,22,01,38,13.20
2015,05,22,01,39,13.20
2015,05,22,01,40,13.20
2015,05,22,01,41,13.20
2015,05,22,01,42,13.20
2015,05,22,01,43,13.20
2015,05,22,01,44,13.20
2015,05,22,01,45,13.20
2015,05,22,01,46,13.20
2015,05,22,01,47,13.10
2015,05,22,01,48,13.10
2015,05,22,01,49,13.10
2015,05,22,01,50,13.10
2015,05,22,01,51,13.10
2015,05,22,01,52,13.10
2015,05,22,01,53,13.10
2015,05,22,01,54,13.10
2015,05,22,01,55,13.10
2015,05,22,01,56,13.10
2015,05,22,01,57,13.10
2015,05,22,01,58,13.00
2015,05,22,01,59,13.00
2015,05,22,02,00,13.00
2015,05,22,02,01,12.90
2015,05,22,02,02,12.90
2015,05,22,02,03,12.90
2015,05,22,02,04,12.90
2015,05,22,02,05,12.90
2015,05,22,02,06,12.90
2015,05,22,02,07,12.90
2015,05,22,02,08,12.80
2015,05,22,02,09,12.80
2015,05,22,02,10,12.80
2015,05,22,02,11,12.80
2015,05,22,02,12,12.80
2015,05,22,02,13,12.80
2015,05,22,02,14,12.80
2015,05,22,02,15,12.70
2015,05,22,02,16,12.70
2015,05,22,02,17,12.70
2015,05,22,02,18,12.70
2015,05,22,02,19,12.70
2015,05,22,02,20,12.70
2015,05,22,02,21,12.70
2015,05,22,02,22,12.70
2015,05,22,02,23,12.70
2015,05,22,02,24,12.70
2015,05,22,02,25,12.70
2015,05,22,02,26,12.70
2015,05,22,02,27,12.70
2015,05,22,02,28,12.60
2015,05,22,02,29,12.60
2015,05,22,02,30,12.60
2015,05,22,02,31,12.60
2015,05,22,02,32,12.60
2015,05,22,02,33,12.60
2015,05,22,02,34,12.60
2015,05,22,02,35,12.60
2015,05,22,02,36,12.50
2015,05,22,02,37,12.50
2015,05,22,02,38,12.50
2015,05,22,02,39,12.40
2015,05,22,02,40,12.40
2015,05,22,02,41,12.40
2015,05,22,02,42,12.40
2015,05,22,02,43,12.40
2015,05,22,02,44,12.30
2015,05,22,02,45,12.30
2015,05,22,02,46,12.30
2015,05,22,02,47,12.30
2015,05,22,02,48,12.30
2015,05,22,02,49,12.30
2015,05,22,02,50,12.30
2015,05,22,02,51,12.30
2015,05,22,02,52,12.30
2015,05,22,02,53,12.20
2015,05,22,02,54,12.20
2015,05,22,02,55,12.20
2015,05,22,02,56,12.20
2015,05,22,02,57,12.20
2015,05,22,02,58,12.10
2015,05,22,02,59,12.10
2015,05,22,03,00,12.10
2015,05,22,03,01,12.10
2015,05,22,03,02,12.10
2015,05,22,03,03,12.00
2015,05,22,03,04,12.00
2015,05,22,03,05,12.00
2015,05,22,03,06,12.00
2015,05,22,03,07,11.90
2015,05,22,03,08,11.90
2015,05,22,03,09,11.90
2015,05,22,03,10,11.90
2015,05,22,03,11,11.90
2015,05,22,03,12,11.90
2015,05,22,03,13,11.90
2015,05,22,03,14,11.90
2015,05,22,03,15,11.90
2015,05,22,03,16,11.80
2015,05,22,03,17,11.80
2015,05,22,03,18,11.80
2015,05,22,03,19,11.80
2015,05,22,03,20,11.80
2015,05,22,03,21,11.80
2015,05,22,03,22,11.80
2015,05,22,03,23,11.80
2015,05,22,03,24,11.80
2015,05,22,03,25,11.80
2015,05,22,03,26,11.80
2015,05,22,03,27,11.70
2015,05,22,03,28,11.70
2015,05,22,03,29,11.70
2015,05,22,03,30,11.70
2015,05,22,03,31,11.80
2015,05,22,03,32,11.80
2015,05,22,03,33,11.80
2015,05,22,03,34,11.80
2015,05,22,03,35,11.80
2015,05,22,03,36,11.80
2015,05,22,03,37,11.80
2015,05,22,03,38,11.80
2015,05,22,03,39,11.80
2015,05,22,03,40,11.80
2015,05,22,03,41,11.80
2015,05,22,03,42,11.80
2015,05,22,03,43,11.80
2015,05,22,03,44,11.70
2015,05,22,03,45,11.80
2015,05,22,03,46,11.70
2015,05,22,03,47,11.70
2015,05,22,03,48,11.70
2015,05,22,03,49,11.70
2015,05,22,03,50,11.70
2015,05,22,03,51,11.70
2015,05,22,03,52,11.70
2015,05,22,03,53,11.70
2015,05,22,03,54,11.80
2015,05,22,03,55,11.80
2015,05,22,03,56,11.80
2015,05,22,03,57,11.80
2015,05,22,03,58,11.80
2015,05,22,03,59,11.80
2015,05,22,04,00,11.80
2015,05,22,04,01,11.80
2015,05,22,04,02,11.80
2015,05,22,04,03,11.80
2015,05,22,05,02,11.40
2015,05,22,05,03,11.40
2015,05,22,05,04,11.40
2015,05,22,05,05,11.40
2015,05,22,05,06,11.30
2015,05,22,05,07,11.30
2015,05,22,05,08,11.30
2015,05,22,05,09,11.30
2015,05,22,05,10,11.30
2015,05,22,05,11,11.30
2015,05,22,05,12,11.30
2015,05,22,05,13,11.30
2015,05,22,05,14,11.30
2015,05,22,05,15,11.20
2015,05,22,05,16,11.20
2015,05,22,05,17,11.20
2015,05,22,05,18,11.20
2015,05,22,05,19,11.20
2015,05,22,05,20,11.20
2015,05,22,05,21,11.20
2015,05,22,05,22,11.20
2015,05,22,05,23,11.20
2015,05,22,05,24,11.20
2015,05,22,05,25,11.20
2015,05,22,05,26,11.20
2015,05,22,05,27,11.20
2015,05,22,05,28,11.20
2015,05,22,05,29,11.20
2015,05,22,05,30,11.20
2015,05,22,05,31,11.20
2015,05,22,05,32,11.20
2015,05,22,05,33,11.20
2015,05,22,05,34,11.20
2015,05,22,05,35,11.20
2015,05,22,05,36,11.20
2015,05,22,05,37,11.20
2015,05,22,05,38,11.20
2015,05,22,05,39,11.20
2015,05,22,05,40,11.20
2015,05,22,05,41,11.20
2015,05,22,05,42,11.20
2015,05,22,05,43,11.20
2015,05,22,05,44,11.20
2015,05,22,05,45,11.20
2015,05,22,05,46,11.20
2015,05,22,05,47,11.30
2015,05,22,05,48,11.30
2015,05,22,05,49,11.30
2015,05,22,05,50,11.30
2015,05,22,05,51,11.30
2015,05,22,05,52,11.30
2015,05,22,05,53,11.30
2015,05,22,05,54,11.30
2015,05,22,05,55,11.30
2015,05,22,05,56,11.30
2015,05,22,05,57,11.30
2015,05,22,05,58,11.30
2015,05,22,05,59,11.30
2015,05,22,06,00,11.30
2015,05,22,06,01,11.30
2015,05,22,06,02,11.30
2015,05,22,06,03,11.30
2015,05,22,06,04,11.20
2015,05,22,06,05,11.20
2015,05,22,06,06,11.20
2015,05,22,06,07,11.20
2015,05,22,06,08,11.20
2015,05,22,06,09,11.20
2015,05,22,06,10,11.20
2015,05,22,06,11,11.20
2015,05,22,06,12,11.20
2015,05,22,06,13,11.20
2015,05,22,06,14,11.20
2015,05,22,06,15,11.20
2015,05,22,06,16,11.20
2015,05,22,06,17,11.20
2015,05,22,06,18,11.20
2015,05,22,06,19,11.20
2015,05,22,06,20,11.20
2015,05,22,06,21,11.20
2015,05,22,06,22,11.20
2015,05,22,06,23,11.20
2015,05,22,06,24,11.20
2015,05,22,06,25,11.20
2015,05,22,06,26,11.20
2015,05,22,06,27,11.20
2015,05,22,06,28,11.20
2015,05,22,06,29,11.30
2015,05,22,06,30,11.30
2015,05,22,06,31,11.30
2015,05,22,06,32,11.30
2015,05,22,06,33,11.30
2015,05,22,06,34,11.30
2015,05,22,06,35,11.30
2015,05,22,06,36,11.40
2015,05,22,06,37,11.40
2015,05,22,06,38,11.40
2015,05,22,06,39,11.40
2015,05,22,06,40,11.40
2015,05,22,06,41,11.40
2015,05,22,06,42,11.50
2015,05,22,06,43,11.50
2015,05,22,06,44,11.50
2015,05,22,06,45,11.50
2015,05,22,06,46,11.50
2015,05,22,06,47,11.50
2015,05,22,06,48,11.50
2015,05,22,06,49,11.60
2015,05,22,06,50,11.60
2015,05,22,06,51,11.60
2015,05,22,06,52,11.60
2015,05,22,06,53,11.60
2015,05,22,06,54,11.60
2015,05,22,06,55,11.60
2015,05,22,06,56,11.60
2015,05,22,06,57,11.70
2015,05,22,06,58,11.70
2015,05,22,06,59,11.70
2015,05,22,07,00,11.70
2015,05,22,07,01,11.70
2015,05,22,07,02,11.70
2015,05,22,07,03,11.70
2015,05,22,07,04,11.70
2015,05,22,07,05,11.70
2015,05,22,07,06,11.80
2015,05,22,07,07,11.80
2015,05,22,07,08,11.80
2015,05,22,07,09,11.80
2015,05,22,07,10,11.80
2015,05,22,07,11,11.80
2015,05,22,07,12,11.90
2015,05,22,07,13,11.90
2015,05,22,07,14,11.90
2015,05,22,07,15,12.00
2015,05,22,07,16,12.00
2015,05,22,07,17,12.00
2015,05,22,07,18,12.10
2015,05,22,07,19,12.10
2015,05,22,07,20,12.20
2015,05,22,07,21,12.20
2015,05,22,07,22,12.20
2015,05,22,07,23,12.20
2015,05,22,07,24,12.30
2015,05,22,07,25,12.30
2015,05,22,07,26,12.30
2015,05,22,07,27,12.30
2015,05,22,07,28,12.30
2015,05,22,07,29,12.40
2015,05,22,07,30,12.40
2015,05,22,07,31,12.40
2015,05,22,07,32,12.50
2015,05,22,07,33,12.50
2015,05,22,07,34,12.60
2015,05,22,07,35,12.60
2015,05,22,07,36,12.60
2015,05,22,07,37,12.70
2015,05,22,07,38,12.70
2015,05,22,07,39,12.70
2015,05,22,07,40,12.80
2015,05,22,07,41,12.80
2015,05,22,07,42,12.80
2015,05,22,07,43,12.90
2015,05,22,07,44,12.90
2015,05,22,07,45,12.90
2015,05,22,07,46,13.00
2015,05,22,07,47,13.00
2015,05,22,07,48,13.10
2015,05,22,07,49,13.10
2015,05,22,07,50,13.10
2015,05,22,07,51,13.10
2015,05,22,07,52,13.10
2015,05,22,07,53,13.10
2015,05,22,07,54,13.10
2015,05,22,07,55,13.20
2015,05,22,07,56,13.20
2015,05,22,07,57,13.20
2015,05,22,07,58,13.20
2015,05,22,07,59,13.30
2015,05,22,08,00,13.30
2015,05,22,08,01,13.30
2015,05,22,08,02,13.30
2015,05,22,08,03,13.30
2015,05,22,08,04,13.40
2015,05,22,08,05,13.40
2015,05,22,08,06,13.50
2015,05,22,08,07,13.60
2015,05,22,08,08,13.70
2015,05,22,08,09,13.80
2015,05,22,08,10,13.80
2015,05,22,08,11,13.90
2015,05,22,08,12,14.00
2015,05,22,08,13,14.00
2015,05,22,08,14,14.00
2015,05,22,08,15,14.00
2015,05,22,08,16,14.00
2015,05,22,08,17,14.00
2015,05,22,08,18,14.10
2015,05,22,08,19,14.10
2015,05,22,08,20,14.10
2015,05,22,08,21,14.10
2015,05,22,08,22,14.10
2015,05,22,08,23,14.20
2015,05,22,08,24,14.20
2015,05,22,08,25,14.20
2015,05,22,08,26,14.20
2015,05,22,08,27,14.30
2015,05,22,08,28,14.30
2015,05,22,08,29,14.30
2015,05,22,08,30,14.30
2015,05,22,08,31,14.40
2015,05,22,08,32,14.40
2015,05,22,08,33,14.50
2015,05,22,08,34,14.50
2015,05,22,08,35,14.60
2015,05,22,08,36,14.60
2015,05,22,08,37,14.60
2015,05,22,08,38,14.70
2015,05,22,08,39,14.70
2015,05,22,08,40,14.80
2015,05,22,08,41,14.80
2015,05,22,08,42,14.80
2015,05,22,08,43,14.90
2015,05,22,08,44,15.00
2015,05,22,08,45,15.00
2015,05,22,08,46,15.00
2015,05,22,08,47,15.10
2015,05,22,08,48,15.10
2015,05,22,08,49,15.20
2015,05,22,08,50,15.20
2015,05,22,08,51,15.20
2015,05,22,08,52,15.30
2015,05,22,08,53,15.30
2015,05,22,08,54,15.30
2015,05,22,08,55,15.40
2015,05,22,08,56,15.40
2015,05,22,08,57,15.40
2015,05,22,08,58,15.50
2015,05,22,08,59,15.50
2015,05,22,09,00,15.60
2015,05,22,09,01,15.60
2015,05,22,09,02,15.70
2015,05,22,09,03,15.70
2015,05,22,09,04,15.60
2015,05,22,09,05,15.60
2015,05,22,09,06,15.60
2015,05,22,09,07,15.60
2015,05,22,09,08,15.70
2015,05,22,09,09,15.70
2015,05,22,09,10,15.70
2015,05,22,09,11,15.60
2015,05,22,09,12,15.50
2015,05,22,09,13,15.40
2015,05,22,09,14,15.20
2015,05,22,09,15,15.00
2015,05,22,09,16,14.90
2015,05,22,09,17,14.80
2015,05,22,09,18,14.70
2015,05,22,09,19,14.60
2015,05,22,09,20,14.60
2015,05,22,09,21,14.50
2015,05,22,09,22,14.40
2015,05,22,09,23,14.30
2015,05,22,09,24,14.30
2015,05,22,09,25,14.30
2015,05,22,09,26,14.40
2015,05,22,09,27,14.40
2015,05,22,09,28,14.40
2015,05,22,09,29,14.40
2015,05,22,09,30,14.40
2015,05,22,09,31,14.50
2015,05,22,09,32,14.50
2015,05,22,09,33,14.40
2015,05,22,09,34,14.30
2015,05,22,09,35,14.30
2015,05,22,09,36,14.20
2015,05,22,09,37,14.20
2015,05,22,09,38,14.30
2015,05,22,09,39,14.30
2015,05,22,09,40,14.30
2015,05,22,09,41,14.20
2015,05,22,09,42,14.20
2015,05,22,09,43,14.20
2015,05,22,09,44,14.20
2015,05,22,09,45,14.20
2015,05,22,09,46,14.30
2015,05,22,09,47,14.30
2015,05,22,09,48,14.40
2015,05,22,09,49,14.50
2015,05,22,09,50,14.50
2015,05,22,09,51,14.60
2015,05,22,09,52,14.60
2015,05,22,09,53,14.70
2015,05,22,09,54,14.70
2015,05,22,09,55,14.80
2015,05,22,09,56,14.80
2015,05,22,09,57,14.70
2015,05,22,09,58,14.70
2015,05,22,09,59,14.50
2015,05,22,10,00,14.50
2015,05,22,10,01,14.50
2015,05,22,10,02,14.40
2015,05,22,10,03,14.30
2015,05,22,10,04,14.30
2015,05,22,10,05,14.30
2015,05,22,10,06,14.30
2015,05,22,10,07,14.30
2015,05,22,10,08,14.30
2015,05,22,10,09,14.30
2015,05,22,10,10,14.40
2015,05,22,10,11,14.40
2015,05,22,10,12,14.50
2015,05,22,10,13,14.60
2015,05,22,10,14,14.60
2015,05,22,10,15,14.70
2015,05,22,10,16,14.70
2015,05,22,10,17,14.80
2015,05,22,10,18,14.80
2015,05,22,10,19,14.80
2015,05,22,10,20,14.80
2015,05,22,10,21,14.90
2015,05,22,10,22,14.90
2015,05,22,10,23,14.80
2015,05,22,10,24,14.80
2015,05,22,10,25,14.70
2015,05,22,10,26,14.70
2015,05,22,10,27,14.70
2015,05,22,10,28,14.70
2015,05,22,10,29,14.80
2015,05,22,10,30,14.80
2015,05,22,10,31,14.90
2015,05,22,10,32,14.90
2015,05,22,10,33,14.90
2015,05,22,10,34,15.00
2015,05,22,10,35,15.00
2015,05,22,10,36,15.00
2015,05,22,10,37,15.00
2015,05,22,10,38,15.00
2015,05,22,10,39,15.10
2015,05,22,10,40,15.10
2015,05,22,10,41,15.10
2015,05,22,10,42,15.20
2015,05,22,10,43,15.30
2015,05,22,10,44,15.30
2015,05,22,10,45,15.30
2015,05,22,10,46,15.40
2015,05,22,10,47,15.40
2015,05,22,10,48,15.30
2015,05,22,10,49,15.40
2015,05,22,10,50,15.40
2015,05,22,10,51,15.40
2015,05,22,10,52,15.40
2015,05,22,10,53,15.30
2015,05,22,10,54,15.30
2015,05,22,10,55,15.30
2015,05,22,10,56,15.30
2015,05,22,10,57,15.30
2015,05,22,10,58,15.30
2015,05,22,10,59,15.30
2015,05,22,11,00,15.40
2015,05,22,11,01,15.40
2015,05,22,11,02,15.40
2015,05,22,11,03,15.40
2015,05,22,11,04,15.40
2015,05,22,11,05,15.50
2015,05,22,11,06,15.60
2015,05,22,11,07,15.70
2015,05,22,11,08,15.70
2015,05,22,11,09,15.70
2015,05,22,11,10,15.80
2015,05,22,11,11,15.80
2015,05,22,11,12,15.90
2015,05,22,11,13,15.90
2015,05,22,11,14,15.80
2015,05,22,11,15,15.70
2015,05,22,11,16,15.60
2015,05,22,11,17,15.60
2015,05,22,11,18,15.60
2015,05,22,11,19,15.60
2015,05,22,11,20,15.60
2015,05,22,11,21,15.60
2015,05,22,11,22,15.60
2015,05,22,11,23,15.60
2015,05,22,11,24,15.60
2015,05,22,11,25,15.70
2015,05,22,11,26,15.70
2015,05,22,11,27,15.70
2015,05,22,11,28,15.70
2015,05,22,11,29,15.70
2015,05,22,11,30,15.70
2015,05,22,11,31,15.70
2015,05,22,11,32,15.70
2015,05,22,11,33,15.80
2015,05,22,11,34,15.80
2015,05,22,11,35,15.80
2015,05,22,11,36,15.80
2015,05,22,11,37,15.80
2015,05,22,11,38,15.80
2015,05,22,11,39,15.80
2015,05,22,11,40,15.80
2015,05,22,11,41,15.80
2015,05,22,11,42,15.80
2015,05,22,11,43,15.80
2015,05,22,11,44,15.80
2015,05,22,11,45,15.80
2015,05,22,11,46,15.80
2015,05,22,11,47,15.90
2015,05,22,11,48,15.90
2015,05,22,11,49,16.00
2015,05,22,11,50,16.00
2015,05,22,11,51,15.90
2015,05,22,11,52,15.90
2015,05,22,11,53,15.80
2015,05,22,11,54,15.80
2015,05,22,11,55,15.80
2015,05,22,11,56,15.80
2015,05,22,11,57,15.80
2015,05,22,11,58,15.80
2015,05,22,11,59,15.90
2015,05,22,12,00,15.90
2015,05,22,12,01,15.90
2015,05,22,12,02,15.80
2015,05,22,12,03,15.80
2015,05,22,12,04,15.80
2015,05,22,12,05,15.80
2015,05,22,12,06,15.90
2015,05,22,12,07,15.90
2015,05,22,12,08,15.90
2015,05,22,12,09,15.90
2015,05,22,12,10,15.90
2015,05,22,12,11,15.90
2015,05,22,12,12,15.90
2015,05,22,12,13,15.90
2015,05,22,12,14,15.90
2015,05,22,12,15,16.00
2015,05,22,12,16,16.10
2015,05,22,12,17,16.10
2015,05,22,12,18,16.10
2015,05,22,12,19,16.00
2015,05,22,12,20,16.00
2015,05,22,12,21,16.00
2015,05,22,12,22,16.10
2015,05,22,12,23,16.10
2015,05,22,12,24,16.10
2015,05,22,12,25,16.10
2015,05,22,12,26,16.10
2015,05,22,12,27,16.00
2015,05,22,12,28,16.00
2015,05,22,12,29,16.00
2015,05,22,12,30,15.90
2015,05,22,12,31,15.90
2015,05,22,12,32,15.90
2015,05,22,12,33,16.00
2015,05,22,12,34,16.10
2015,05,22,12,35,16.10
2015,05,22,12,36,16.20
2015,05,22,12,37,16.20
2015,05,22,12,38,16.40
2015,05,22,12,39,16.50
2015,05,22,12,40,16.50
2015,05,22,12,41,16.40
2015,05,22,12,42,16.50
2015,05,22,12,43,16.60
2015,05,22,12,44,16.60
2015,05,22,12,45,16.70
2015,05,22,12,46,16.80
2015,05,22,12,47,16.70
2015,05,22,12,48,16.70
2015,05,22,12,49,16.70
2015,05,22,12,50,16.70
2015,05,22,12,51,16.70
2015,05,22,12,52,16.70
2015,05,22,12,53,16.60
2015,05,22,12,54,16.60
2015,05,22,12,55,16.60
2015,05,22,12,56,16.60
2015,05,22,12,57,16.60
2015,05,22,12,58,16.70
2015,05,22,12,59,16.70
2015,05,22,13,00,16.70
2015,05,22,13,01,16.70
2015,05,22,13,02,16.80
2015,05,22,13,03,16.90
2015,05,22,13,04,17.00
2015,05,22,13,05,17.10
2015,05,22,13,06,17.20
2015,05,22,13,07,17.30
2015,05,22,13,08,17.40
2015,05,22,13,09,17.50
2015,05,22,13,10,17.60
2015,05,22,13,11,17.70
2015,05,22,13,12,17.80
2015,05,22,13,13,17.80
2015,05,22,13,14,17.90
2015,05,22,13,15,18.00
2015,05,22,13,16,18.00
2015,05,22,13,17,18.10
2015,05,22,13,18,18.10
2015,05,22,13,19,18.10
2015,05,22,13,20,18.10
2015,05,22,13,21,18.20
2015,05,22,13,22,18.20
2015,05,22,13,23,18.20
2015,05,22,13,24,18.10
2015,05,22,13,25,18.10
2015,05,22,13,26,18.20
2015,05,22,13,27,18.20
2015,05,22,13,28,18.30
2015,05,22,13,29,18.40
2015,05,22,13,30,18.40
2015,05,22,13,31,18.50
2015,05,22,13,32,18.60
2015,05,22,13,33,18.60
2015,05,22,13,34,18.60
2015,05,22,13,35,18.50
2015,05,22,13,36,18.40
2015,05,22,13,37,18.30
2015,05,22,13,38,18.30
2015,05,22,13,39,18.30
2015,05,22,13,40,18.30
2015,05,22,13,41,18.30
2015,05,22,13,42,18.30
2015,05,22,13,43,18.30
2015,05,22,13,44,18.30
2015,05,22,13,45,18.40
2015,05,22,13,46,18.50
2015,05,22,13,47,18.60
2015,05,22,13,48,18.70
2015,05,22,13,49,18.80
2015,05,22,13,50,18.90
2015,05,22,13,51,19.00
2015,05,22,13,52,19.00
2015,05,22,13,53,19.10
2015,05,22,13,54,19.10
2015,05,22,13,55,19.20
2015,05,22,13,56,19.30
2015,05,22,13,57,19.40
2015,05,22,13,58,19.50
2015,05,22,13,59,19.60
2015,05,22,14,00,19.70
2015,05,22,14,01,19.70
2015,05,22,14,02,19.60
2015,05,22,14,03,19.60
2015,05,22,14,04,19.40
2015,05,22,14,05,19.40
2015,05,22,14,06,19.40
2015,05,22,14,07,19.50
2015,05,22,14,08,19.50
2015,05,22,14,09,19.40
2015,05,22,14,10,19.30
2015,05,22,14,11,19.20
2015,05,22,14,12,19.00
2015,05,22,14,13,19.00
2015,05,22,14,14,19.00
2015,05,22,14,15,19.10
2015,05,22,14,16,19.20
2015,05,22,14,17,19.20
2015,05,22,14,18,19.10
2015,05,22,14,19,19.10
2015,05,22,14,20,19.00
2015,05,22,14,21,18.80
2015,05,22,14,22,18.50
2015,05,22,14,23,18.40
2015,05,22,14,24,18.30
2015,05,22,14,25,18.40
2015,05,22,14,26,18.50
2015,05,22,14,27,18.60
2015,05,22,14,28,18.70
2015,05,22,14,29,18.70
2015,05,22,14,30,18.70
2015,05,22,14,31,18.70
2015,05,22,14,32,18.70
2015,05,22,14,33,18.80
2015,05,22,14,34,18.70
2015,05,22,14,35,18.70
2015,05,22,14,36,18.70
2015,05,22,14,37,18.80
2015,05,22,14,38,18.90
2015,05,22,14,39,18.90
2015,05,22,14,40,19.00
2015,05,22,14,41,19.00
2015,05,22,14,42,19.10
2015,05,22,14,43,19.20
2015,05,22,14,44,19.40
2015,05,22,14,45,19.60
2015,05,22,14,46,19.70
2015,05,22,14,47,19.90
2015,05,22,14,48,20.00
2015,05,22,14,49,20.20
2015,05,22,14,50,20.30
2015,05,22,14,51,20.40
2015,05,22,14,52,20.50
2015,05,22,14,53,20.60
2015,05,22,14,54,20.70
2015,05,22,14,55,20.70
2015,05,22,14,56,20.70
2015,05,22,14,57,20.70
2015,05,22,14,58,20.70
2015,05,22,14,59,20.70
2015,05,22,15,00,20.70
2015,05,22,15,01,20.70
2015,05,22,15,02,20.70
2015,05,22,15,03,20.70
2015,05,22,15,04,20.70
2015,05,22,15,05,20.70
2015,05,22,15,06,20.70
2015,05,22,15,07,20.80
2015,05,22,15,08,20.80
2015,05,22,15,09,20.90
2015,05,22,15,10,20.90
2015,05,22,15,11,20.90
2015,05,22,15,12,21.00
2015,05,22,15,13,21.10
2015,05,22,15,14,21.20
2015,05,22,15,15,21.30
2015,05,22,15,16,21.30
2015,05,22,15,17,21.40
2015,05,22,15,18,21.50
2015,05,22,15,19,21.50
2015,05,22,15,20,21.50
2015,05,22,15,21,21.60
2015,05,22,15,22,21.60
2015,05,22,15,23,21.50
2015,05,22,15,24,21.40
2015,05,22,15,25,21.20
2015,05,22,15,26,21.10
2015,05,22,15,27,21.10
2015,05,22,15,28,21.10
2015,05,22,15,29,21.10
2015,05,22,15,30,21.10
2015,05,22,15,31,21.10
2015,05,22,15,32,21.10
2015,05,22,15,33,21.00
2015,05,22,15,34,20.90
2015,05,22,15,35,20.80
2015,05,22,15,36,20.70
2015,05,22,15,37,20.50
2015,05,22,15,38,20.40
2015,05,22,15,39,20.20
2015,05,22,15,40,20.20
2015,05,22,15,41,20.10
2015,05,22,15,42,19.90
2015,05,22,15,43,19.80
2015,05,22,15,44,19.80
2015,05,22,15,45,19.70
2015,05,22,15,46,19.80
2015,05,22,15,47,19.80
2015,05,22,15,48,19.70
2015,05,22,15,49,19.70
2015,05,22,15,50,19.70
2015,05,22,15,51,19.60
2015,05,22,15,52,19.60
2015,05,22,15,53,19.60
2015,05,22,15,54,19.60
2015,05,22,15,55,19.60
2015,05,22,15,56,19.60
2015,05,22,15,57,19.60
2015,05,22,15,58,19.70
2015,05,22,15,59,19.70
2015,05,22,16,00,19.70
2015,05,22,16,01,19.70
2015,05,22,16,02,19.70
2015,05,22,16,03,19.60
2015,05,22,16,04,19.60
2015,05,22,16,05,19.60
2015,05,22,16,06,19.50
2015,05,22,16,07,19.50
2015,05,22,16,08,19.40
2015,05,22,16,09,19.40
2015,05,22,16,10,19.40
2015,05,22,16,11,19.30
2015,05,22,16,12,19.30
2015,05,22,16,13,19.20
2015,05,22,16,14,19.20
2015,05,22,16,15,19.20
2015,05,22,16,16,19.10
2015,05,22,16,17,19.10
2015,05,22,16,18,19.10
2015,05,22,16,19,19.10
2015,05,22,16,20,19.10
2015,05,22,16,21,19.00
2015,05,22,16,22,19.00
2015,05,22,16,23,18.90
2015,05,22,16,24,18.90
2015,05,22,16,25,18.90
2015,05,22,16,26,18.90
2015,05,22,16,27,18.80
2015,05,22,16,28,18.80
2015,05,22,16,29,18.80
2015,05,22,16,30,18.90
2015,05,22,16,31,18.90
2015,05,22,16,32,18.90
2015,05,22,16,33,18.90
2015,05,22,16,34,18.90
2015,05,22,16,35,18.90
2015,05,22,16,36,18.90
2015,05,22,16,37,19.00
2015,05,22,16,38,19.00
2015,05,22,16,39,19.00
2015,05,22,16,40,19.00
2015,05,22,16,41,19.00
2015,05,22,16,42,19.00
2015,05,22,16,43,19.00
2015,05,22,16,44,19.10
2015,05,22,16,45,19.10
2015,05,22,16,46,19.10
2015,05,22,16,47,19.10
2015,05,22,16,48,19.10
2015,05,22,16,49,19.10
2015,05,22,16,50,19.20
2015,05,22,16,51,19.20
2015,05,22,16,52,19.20
2015,05,22,16,53,19.10
2015,05,22,16,54,19.10
2015,05,22,16,55,19.00
2015,05,22,16,56,19.00
2015,05,22,16,57,19.00
2015,05,22,16,58,18.90
2015,05,22,16,59,18.90
2015,05,22,17,00,18.90
2015,05,22,17,01,18.90
2015,05,22,17,02,18.90
2015,05,22,17,03,18.90
2015,05,22,17,04,18.90
2015,05,22,17,05,18.90
2015,05,22,17,06,18.90
2015,05,22,17,07,18.90
2015,05,22,17,08,18.90
2015,05,22,17,09,18.90
2015,05,22,17,10,18.90
2015,05,22,17,11,18.90
2015,05,22,17,12,18.90
2015,05,22,17,13,18.90
2015,05,22,17,14,18.90
2015,05,22,17,15,18.90
2015,05,22,17,16,18.90
2015,05,22,17,17,18.90
2015,05,22,17,18,18.90
2015,05,22,17,19,18.90
2015,05,22,17,20,18.90
2015,05,22,17,21,18.90
2015,05,22,17,22,19.00
2015,05,22,17,23,18.90
2015,05,22,17,24,19.00
2015,05,22,17,25,19.00
2015,05,22,17,26,19.00
2015,05,22,17,27,19.00
2015,05,22,17,28,19.00
2015,05,22,17,29,19.10
2015,05,22,17,30,19.10
2015,05,22,17,31,19.10
2015,05,22,17,32,19.10
2015,05,22,17,33,19.10
2015,05,22,17,34,19.20
2015,05,22,17,35,19.20
2015,05,22,17,36,19.20
2015,05,22,17,37,19.20
2015,05,22,17,38,19.30
2015,05,22,17,39,19.30
2015,05,22,17,40,19.40
2015,05,22,17,41,19.40
2015,05,22,17,42,19.40
2015,05,22,17,43,19.50
2015,05,22,17,44,19.50
2015,05,22,17,45,19.50
2015,05,22,17,46,19.60
2015,05,22,17,47,19.60
2015,05,22,17,48,19.60
2015,05,22,17,49,19.60
2015,05,22,17,50,19.60
2015,05,22,17,51,19.60
2015,05,22,17,52,19.60
2015,05,22,17,53,19.60
2015,05,22,17,54,19.60
2015,05,22,17,55,19.60
2015,05,22,17,56,19.60
2015,05,22,17,57,19.60
2015,05,22,17,58,19.60
2015,05,22,17,59,19.60
2015,05,22,18,00,19.60
2015,05,22,18,01,19.60
2015,05,22,18,02,19.60
2015,05,22,18,03,19.60
2015,05,22,18,04,19.60
2015,05,22,18,05,19.60
2015,05,22,18,06,19.60
2015,05,22,18,07,19.60
2015,05,22,18,08,19.60
2015,05,22,18,09,19.60
2015,05,22,18,10,19.50
2015,05,22,18,11,19.40
2015,05,22,18,12,19.30
2015,05,22,18,13,19.20
2015,05,22,18,14,19.00
2015,05,22,18,15,18.90
2015,05,22,18,16,18.90
2015,05,22,18,17,18.80